332  
ASUS41 KPHI 201613  
RWRPHI  
 
REGIONAL WEATHER ROUNDUP  
NATIONAL WEATHER SERVICE MOUNT HOLLY NJ  
1200 PM EDT WED JUN 20 2018  
 
NOTE: "FAIR" INDICATES FEW OR NO CLOUDS BELOW 12,000 FEET WITH NO  
SIGNIFICANT WEATHER AND/OR S TO VISIBILITY
.  
 
* = STATION DOES NOT REPORT PRECIPITATION (E.G. RAIN, SNOW, ETC.)  
OR FOG.
 
 
NJZ015>026-201700-  
SOUTHERN NEW JERSEY  
 
CITY SKY/WX TMP DP RH WIND PRES REMARKS
 
POMONA FAIR 81 67 62 S12G20 29.88F  
WILDWOOD* FAIR 78 70 76 SE12 29.88F  
MILLVILLE FAIR 82 68 62 VRB7 29.87F  
WRIGHTSTOWN MOSUNNY 84 61 46 S7 29.84F  
MOUNT HOLLY FAIR 82 64 54 CALM 29.85F  
TRENTON FAIR 79 63 57 S3 29.86F  
 

 
NJZ001>014-201700-  
NORTHERN NEW JERSEY  
 
CITY SKY/WX TMP DP RH WIND PRES REMARKS
 
SUSSEX PTSUNNY 74 57 55 CALM 29.89F  
ANDOVER* N/A 77 57 50 VRB3 29.89F  
MORRISTOWN PTSUNNY 79 55 44 S5 29.88F  
NEWARK PTSUNNY 79 52 38 S10 29.87F  
TETERBORO FAIR 80 52 37 VRB3 29.86F  
CALDWELL FAIR 78 52 40 SE7 29.88F  
SOMERVILLE FAIR 78 59 51 CALM 29.86F  
ALLAIRE* FAIR 75 58 55 SE7 29.89F  
TOMS RIVER* FAIR 82 62 50 CALM 29.88F  
 

 
PAZ043-044-047-054-055-060>062-066>071-201700-  
EASTERN PENNSYLVANIA  
 
CITY SKY/WX TMP DP RH WIND PRES REMARKS
 
PHILADELPHIA FAIR 83 64 52 CALM 29.86F  
NORTH PHILA FAIR 84 66 54 S6 29.87F  
BLUE BELL* FAIR 81 61 50 S3 29.88F  
DOYLESTOWN FAIR 79 59 50 VRB5 29.87F  
QUAKERTOWN* SUNNY 81 59 47 CALM 29.89S  
PERKASIE* FAIR 79 59 50 CALM 29.89F  
POTTSTOWN FAIR 78 59 51 VRB3 29.89F  
LANCASTER CLOUDY 80 57 45 CALM 29.87F  
COATESVILLE FAIR 81 59 47 CALM 29.90F  
READING FAIR 82 60 47 MISG 29.86F  
ALLENTOWN FAIR 79 56 45 CALM 29.88F  
MOUNT POCONO FAIR 71 55 56 S7 29.93F  
HAZLETON FAIR 77 54 44 SE3 29.95S  
LEHIGHTON FAIR 77 55 47 CALM 29.90S  
WILKES BARRE FAIR 76 59 55 W6 29.88F  
 

 
DEZALL-MDZ008-012-015-019-020-201700-  
DELAWARE AND EASTERN MARYLAND  
 
CITY SKY/WX TMP DP RH WIND PRES REMARKS
 
WILMINGTON PTSUNNY 82 70 66 S10 29.87F  
DOVER MOSUNNY 81 73 77 E9 29.86F  
GEORGETOWN FAIR 85 70 60 VRB3 29.86F  
EASTON MOSUNNY 86 66 51 CALM 29.90S  
ABERDEEN PTSUNNY 83 64 52 CALM 29.87F  
PATUXENT FAIR 85 73 67 E6 29.87 HX 91  
OCEAN CITY FAIR 78 71 79 VRB6 29.88F  
WALLOPS ISLAND PTSUNNY 82 75 79 S8 29.87F  
CAMBRIDGE SUNNY 84 70 61 CALM 29.86S  
SALISBURY FAIR 84 73 69 SE9 29.86F HX 90  
 

 
PAZ001-021-NYZ056-072-MDZ011-DCZ001-201700-  
OTHER NEARBY LOCATIONS  
 
CITY SKY/WX TMP DP RH WIND PRES REMARKS
 
HARRISBURG CLOUDY 79 58 48 CALM 29.87F  
STATE COLLEGE PTSUNNY 72 57 60 CALM 29.91F  
WILLIAMSPORT PTSUNNY 75 56 51 VRB3 29.87F  
BINGHAMTON FAIR 69 51 52 SW6 29.91F  
NEW YORK CITY PTSUNNY 78 54 43 CALM 29.90F  
BALTIMORE PTSUNNY 83 61 47 S3 29.87S  
WASHINGTON DC CLOUDY 81 64 56 S5 29.88S  
 

 
 
 
CLICK HERE TO GO TO PREVIOUS BULLETINS.

The Nexlab PA Page
The Nexlab NJ Page
The Nexlab DE Page
The Nexlab MD Page Main Text Page